DateTimeUTC,F1_A11,F1_S11,BsB_S11,BsG_S11,BsR_S11,BbsB_S11,BbsG_S11,BbsR_S11,BaB_A11,BaG_A11,BaR_A11,Tu_S11,T_S11,Uu_S11,U_S11,P_S11,T1_A11
2021-05-28T08:00:00Z,00000200,20000000,,,,,,,0000.27,-000.10,0000.05,17.6,24.2,11.1,07.4,0674.6,30.8
2021-05-28T08:01:00Z,00000200,20000000,,,,,,,0000.11,0000.26,0000.10,17.6,24.2,11.1,07.4,0674.6,30.8
2021-05-28T08:02:00Z,00000200,20000000,,,,,,,-000.05,-000.09,0000.16,17.6,24.2,11.1,07.4,0674.6,30.8
2021-05-28T08:03:00Z,00000200,60000000,,,,,,,0000.21,0000.25,0000.06,17.6,24.2,11.1,07.4,0674.6,30.8
2021-05-28T08:04:00Z,00000200,40000000,0000.55,0000.71,-000.02,0000.48,0000.11,-000.01,0000.06,0000.42,0000.34,17.7,24.0,11.1,07.5,0675.5,30.8
2021-05-28T08:05:00Z,00000200,00000000,0001.41,0000.32,0000.42,0000.12,0000.22,-000.09,0000.81,0000.35,0000.17,17.8,24.0,11.1,07.6,0675.5,30.8
2021-05-28T08:06:00Z,00000200,00000000,0000.76,0000.65,0000.40,0000.22,0000.03,0000.03,0000.59,0000.58,0000.40,17.8,23.9,11.2,07.6,0675.6,30.8
2021-05-28T08:07:00Z,00000200,00000000,0000.92,0000.48,-000.02,0000.34,-000.21,-000.05,0000.31,0000.25,0000.34,17.8,24.0,11.1,07.6,0675.7,30.8
2021-05-28T08:08:00Z,00000200,00000000,0001.22,0000.57,0000.31,0000.37,0000.13,0000.01,0000.56,0000.60,0000.39,17.9,24.0,11.1,07.6,0675.7,30.8
2021-05-28T08:09:00Z,00000200,00000000,0000.00,0000.52,0000.41,0000.45,0000.16,0000.02,0000.46,0000.35,0000.25,17.9,24.0,11.2,07.7,0675.7,30.8
2021-05-28T08:10:00Z,00000200,00000000,0000.82,0000.61,0000.30,0000.54,0000.13,-000.07,0000.30,0000.07,0000.18,17.9,24.0,11.2,07.7,0675.5,30.8
2021-05-28T08:11:00Z,00000200,00000000,0000.41,0000.46,0000.67,0000.25,0000.07,0000.04,0000.62,0000.72,0000.41,17.9,24.0,11.0,07.6,0675.5,30.8
2021-05-28T08:12:00Z,00000200,00000000,0000.54,0000.53,0000.35,0000.09,-000.02,0000.02,0000.00,0000.38,0000.05,18.0,24.0,11.1,07.6,0675.5,30.8
2021-05-28T08:13:00Z,00000200,00000000,0001.10,0000.72,0000.51,0000.53,0000.16,-000.17,0000.73,0000.16,0000.67,18.0,24.1,10.9,07.5,0675.5,30.8
2021-05-28T08:14:00Z,00000200,00000000,0000.17,0000.87,0000.46,0000.17,-000.03,0000.14,0000.35,0000.28,-000.16,18.0,24.1,10.9,07.5,0675.6,30.8
2021-05-28T08:15:00Z,00000200,00000000,0000.81,0000.61,0000.43,0000.39,0000.17,0000.04,0000.57,0000.33,0000.23,18.0,24.0,11.0,07.6,0675.7,30.8
2021-05-28T08:16:00Z,00000200,00000000,0000.80,0000.44,0000.34,0000.11,0000.16,-000.15,0000.12,0000.31,0000.57,18.0,24.1,11.0,07.6,0675.7,30.8
2021-05-28T08:17:00Z,00000200,00000000,0000.44,0000.76,0000.42,0000.84,0000.13,-000.01,0000.21,0000.29,-000.12,18.0,24.1,10.9,07.5,0675.8,30.8
2021-05-28T08:18:00Z,00000200,00000000,0001.32,0000.68,0000.34,-000.28,0000.25,0000.12,0000.55,0000.40,0000.31,18.0,24.0,10.9,07.5,0675.7,30.8
2021-05-28T08:19:00Z,00000200,00000000,0000.66,0000.64,0000.41,0000.31,0000.42,0000.04,0000.29,0000.22,0000.87,17.9,24.0,10.9,07.5,0675.8,30.8
2021-05-28T08:20:00Z,00000200,00000000,0000.94,0000.61,0000.50,0000.25,0000.29,0000.21,0000.68,0000.57,0000.11,18.0,24.0,10.9,07.5,0675.8,30.8
2021-05-28T08:21:00Z,00000200,00000000,0001.24,0000.72,0000.09,0000.77,0000.12,-000.31,0000.21,0000.42,-000.04,17.9,24.0,10.9,07.5,0675.7,30.8
2021-05-28T08:22:00Z,00000200,00000000,0000.98,0000.70,0000.25,0000.01,-000.14,-000.46,0000.45,0000.45,0000.10,18.0,24.0,10.9,07.5,0675.7,30.8
2021-05-28T08:23:00Z,00000200,00000000,0000.97,0000.74,0000.39,-000.04,0000.10,-000.14,0000.23,0000.04,0000.35,17.9,24.0,10.9,07.5,0675.7,30.8
2021-05-28T08:24:00Z,00000200,00000000,0001.01,0000.54,0000.42,0000.48,0000.25,0000.00,0000.58,0000.58,0000.44,17.9,24.0,10.9,07.5,0675.8,30.8
2021-05-28T08:25:00Z,00000200,00000000,0001.70,0000.91,0000.59,0000.39,0000.05,0000.01,0000.57,0000.55,0000.30,17.9,24.0,10.9,07.5,0675.8,30.8
2021-05-28T08:26:00Z,00000200,00000000,0000.43,0000.49,0000.38,-000.14,-000.00,0000.11,0000.46,0000.54,0000.22,17.9,24.0,10.9,07.5,0675.7,30.8
2021-05-28T08:27:00Z,00000200,00000000,0000.77,0000.67,0000.43,0000.35,0000.12,0000.06,0000.36,0000.40,0000.38,17.9,24.0,10.9,07.5,0675.5,30.8
2021-05-28T08:28:00Z,00000200,00000000,0000.95,0000.29,0000.30,-000.29,0000.12,0000.26,0000.30,0000.25,0000.38,17.9,24.0,10.9,07.5,0675.5,30.8
2021-05-28T08:29:00Z,00000200,00000000,0000.79,0000.63,0000.56,-000.06,-000.05,-000.19,0000.14,0000.31,0000.32,17.9,24.0,11.0,07.6,0675.6,30.8
2021-05-28T08:30:00Z,00000200,00000000,0000.84,0000.42,0000.38,0000.19,0000.11,0000.06,0001.13,0000.62,0000.55,17.9,24.0,11.1,07.6,0675.7,30.8
2021-05-28T08:31:00Z,00000200,00000000,0001.51,0000.90,0000.43,0000.86,-000.03,0000.08,0000.17,0000.14,0000.06,17.9,24.0,11.1,07.6,0675.7,30.8
2021-05-28T08:32:00Z,00000200,00000000,0001.63,0000.74,0000.42,0000.31,0000.13,-000.03,0000.24,0000.31,0000.35,17.9,24.0,11.2,07.7,0675.7,30.8
2021-05-28T08:33:00Z,00000200,00000000,0001.45,0000.79,0000.42,0000.15,0000.10,0000.19,0000.34,0000.33,0000.23,17.9,24.0,11.2,07.7,0675.6,30.8
2021-05-28T08:34:00Z,00000200,00000000,0001.15,0000.49,0000.26,-000.20,0000.16,-000.23,0000.84,0000.66,0000.18,17.9,24.0,11.3,07.8,0675.6,30.8
2021-05-28T08:35:00Z,00000200,00000000,0001.09,0000.52,0000.28,-000.08,-000.12,0000.03,0000.13,0000.20,0000.21,17.9,24.0,11.2,07.7,0675.6,30.8
2021-05-28T08:36:00Z,00000200,00000000,0000.44,0000.79,0000.48,0000.97,0000.04,0000.15,0000.22,0000.05,0000.40,17.9,24.0,11.3,07.7,0675.6,30.8
2021-05-28T08:37:00Z,00000200,00000000,0001.02,0000.79,0000.23,0000.50,0000.11,-000.10,0000.10,0000.20,0000.08,17.9,24.0,11.2,07.7,0675.6,30.8
2021-05-28T08:38:00Z,00000200,00000000,0000.38,0000.22,0000.24,0000.37,0000.32,-000.28,0000.69,0000.97,0000.30,17.9,24.0,11.2,07.7,0675.5,30.8
2021-05-28T08:39:00Z,00000200,00000000,0001.08,0000.30,0000.14,0000.37,0000.22,0000.25,0000.22,-000.10,0000.24,17.9,24.0,11.2,07.7,0675.6,30.8
2021-05-28T08:40:00Z,00000200,00000000,0000.83,0000.40,0000.27,0000.15,0000.20,-000.21,0000.42,0000.46,0000.34,17.9,24.0,11.2,07.7,0675.6,30.8
2021-05-28T08:41:00Z,00000200,00000000,0001.46,0000.39,0000.15,0000.24,-000.22,0000.15,0000.15,0000.13,0000.18,17.9,24.0,11.3,07.8,0675.7,30.8
2021-05-28T08:42:00Z,00000200,00000000,0001.03,0000.80,0000.24,0000.62,0000.08,0000.10,0000.35,0000.08,0000.10,17.9,24.0,11.3,07.8,0675.7,30.8
2021-05-28T08:43:00Z,00000200,00000000,0000.82,0000.56,0000.33,-000.06,0000.07,-000.04,0000.24,0000.58,0000.28,17.9,24.0,11.4,07.9,0675.8,30.8
2021-05-28T08:44:00Z,00000200,00000000,0000.49,0000.36,0000.26,0000.52,-000.08,-000.01,0000.59,0000.44,0000.24,17.9,24.0,11.5,07.9,0675.7,30.8
2021-05-28T08:45:00Z,00000200,00000000,0000.76,0000.59,0000.18,0000.45,-000.02,-000.02,0000.22,0000.19,0000.09,17.9,24.0,11.5,07.9,0675.8,30.8
2021-05-28T08:46:00Z,00000200,00000000,0000.92,0000.47,0000.38,0000.06,0000.15,0000.14,0000.32,0000.20,0000.46,17.9,24.0,11.5,07.9,0675.7,30.8
2021-05-28T08:47:00Z,00000200,00000000,0001.03,0000.74,0000.11,0000.37,-000.04,-000.08,0000.16,0000.55,0000.34,17.9,24.0,11.6,08.0,0675.8,30.8
2021-05-28T08:48:00Z,00000200,00000000,0001.24,0000.41,0000.43,-000.13,-000.08,-000.17,0000.67,0000.41,0000.09,17.9,24.0,11.6,08.0,0675.9,30.8
2021-05-28T08:49:00Z,00000200,00000000,0000.66,0000.38,0000.33,0000.36,-000.06,0000.31,0000.16,-000.07,0000.13,17.9,24.0,11.6,08.0,0675.8,30.8
2021-05-28T08:50:00Z,00000200,00000000,0000.59,0000.27,0000.32,-000.01,0000.06,0000.01,0000.36,0000.33,0000.20,17.9,24.0,11.6,08.0,0675.8,30.8
2021-05-28T08:51:00Z,00000200,00000000,0000.73,0000.37,0000.29,0000.24,0000.12,0000.01,0000.40,0000.05,0000.47,17.9,24.0,11.6,08.0,0675.6,30.8
2021-05-28T08:52:00Z,00000200,00000000,0000.83,0000.32,0000.55,0000.41,0000.07,0000.21,0000.07,0000.66,0000.05,17.9,24.0,11.6,08.0,0675.7,30.8
2021-05-28T08:53:00Z,00000200,00000000,0000.72,0000.39,0000.38,0000.27,0000.47,0000.06,0000.61,0000.28,0000.52,17.9,24.0,11.5,07.9,0675.6,30.8
2021-05-28T08:54:00Z,00000200,00000000,0000.43,0000.57,0000.18,0000.05,0000.20,-000.27,-000.06,0000.31,0000.04,17.9,24.0,11.5,07.9,0675.6,30.8
2021-05-28T08:55:00Z,00000200,00000000,0000.65,0000.46,0000.06,0000.40,0000.09,-000.18,0000.28,0000.25,0000.02,17.9,24.0,11.5,07.9,0675.6,30.8
2021-05-28T08:56:00Z,00000200,00000000,0000.30,0000.67,0000.39,0000.72,0000.26,0000.18,-000.10,-000.08,0000.13,17.9,24.0,11.5,07.9,0675.7,30.8
2021-05-28T08:57:00Z,00000200,40000000,,,,,,,0000.05,0000.21,0000.38,18.0,24.1,11.8,08.1,0675.8,30.8
2021-05-28T08:58:00Z,00000200,60000000,,,,,,,0000.48,-000.10,-000.21,17.7,24.1,11.5,07.7,0674.8,30.8
2021-05-28T08:59:00Z,00000200,20000000,,,,,,,0000.03,0000.07,-000.09,17.7,24.2,11.4,07.6,0674.7,30.8
